Location: Bennemühlen
(52.5740°N, 9.7135°E)
Time: 01:00:45
(UTC+00:00)

Vanguard 2 Rocket - Pass Details

Date: 17 February 2026
Orbit: 553 x 3286 km, 32.9° (Epoch: 12 March)

Event Time Altitude Azimuth Distance (km) Brightness Sun altitude
Rises 12:28:20 0° 230° (SW) 7,183 12.3 24.5°
Reaches altitude 10° 12:34:22 10° 221° (SW) 5,965 12.4 24.3°
Maximum altitude 12:47:57 29° 171° (S) 3,779 11.4 23.7°
Drops below altitude 10° 12:57:34 10° 118° (ESE) 4,184 10.4 23.2°
Sets 13:00:54 0° 107° (ESE) 4,806 10.5 23.0°
